Brunswick, GA

9:49 PM EDT on September 23, 2017 (GMT -0400)
Glynco Jetport

Weather History for KBQK - March, 2013

Change the Weather History Date:

Thursday, March 21, 2013

  Actual Average Record
Temperature  
Mean Temperature 54 °F -  
Max Temperature 66 °F 74 °F 88 °F (1982)
Min Temperature 42 °F 51 °F 33 °F (1971)
Degree Days  
Heating Degree Days 11    
Growing Degree Days 4 (Base 50)    
Moisture  
Dew Point 31 °F    
Average Humidity 39    
Maximum Humidity 76    
Minimum Humidity 23    
Precipitation  
Precipitation 0.00 in - - ()
Sea Level Pressure  
Sea Level Pressure 29.92 in    
Wind  
Wind Speed 10 mph (WNW)    
Max Wind Speed 17 mph    
Max Gust Speed 28 mph    
Visibility 10 miles    
Events      
Averages and records for this station are not official NWS values.
T = Trace of Precipitation, MM = Missing Value Source: NWS Daily Summary

Daily Weather History Graph

Daily Weather History Graph

Search for Another Location

Airport or City:

Trip Planner

Search our weather history database for the weather conditions in past years. The results will help you decide how hot, cold, wet, or windy it might be!

Date:

Astronomy

Mar. 21, 2013 Rise Set
Actual Time 7:28 AM EDT 7:38 PM EDT
Civil Twilight 7:03 AM EDT 8:02 PM EDT
Nautical Twilight 6:35 AM EDT 8:30 PM EDT
Astronomical Twilight 6:07 AM EDT 8:59 PM EDT
Moon 2:24 PM EDT (3/21) 3:30 AM EDT (3/21)
Length of Visible Light 12h 58m
Length of Day
12h 10m
Waxing Gibbous, 68% of the Moon is Illuminated
Mar 21
Waxing Gibbous
Mar 27
Full
Apr 3
Last Quarter
Apr 10
New
Apr 18
First Quarter

Hourly Weather History & Observations

Time (EDT) Temp. Dew Point Humidity Pressure Visibility Wind Dir Wind Speed Gust Speed Precip Events Conditions
10:35 AM 53.6 °F 32.0 °F 44% 29.95 in 10.0 mi NW 9.2 mph 20.7 mph N/A   Clear
10:55 AM 55.4 °F 32.0 °F 41% 29.96 in 10.0 mi NW 11.5 mph 19.6 mph N/A   Clear
11:15 AM 55.4 °F 32.0 °F 41% 29.96 in 10.0 mi NW 12.7 mph 18.4 mph N/A   Clear
11:35 AM 59.0 °F 32.0 °F 36% 29.96 in 10.0 mi WNW 12.7 mph 20.7 mph N/A   Clear
11:55 AM 59.0 °F 32.0 °F 36% 29.95 in 10.0 mi WNW 13.8 mph 19.6 mph N/A   Clear
12:15 PM 59.0 °F 30.2 °F 34% 29.95 in 10.0 mi West 12.7 mph 23.0 mph N/A   Clear
12:35 PM 60.8 °F 32.0 °F 34% 29.94 in 10.0 mi WNW 13.8 mph 20.7 mph N/A   Clear
12:55 PM 60.8 °F 28.4 °F 29% 29.93 in 10.0 mi West 12.7 mph 20.7 mph N/A   Clear
1:15 PM 62.6 °F 30.2 °F 30% 29.93 in 10.0 mi WNW 15.0 mph 21.9 mph N/A   Clear
1:35 PM 62.6 °F 26.6 °F 26% 29.92 in 10.0 mi WNW 16.1 mph 26.5 mph N/A   Clear
1:55 PM 64.4 °F 28.4 °F 26% 29.91 in 10.0 mi WNW 11.5 mph 18.4 mph N/A   Clear
2:15 PM 64.4 °F 28.4 °F 26% 29.90 in 10.0 mi West 12.7 mph 18.4 mph N/A   Clear
2:35 PM 64.4 °F 28.4 °F 26% 29.89 in 10.0 mi West 16.1 mph 21.9 mph N/A   Clear
2:55 PM 64.4 °F 28.4 °F 26% 29.89 in 10.0 mi West 11.5 mph 19.6 mph N/A   Clear
3:15 PM 66.2 °F 28.4 °F 24% 29.88 in 10.0 mi West 13.8 mph - N/A   Clear
3:35 PM 66.2 °F 28.4 °F 24% 29.87 in 10.0 mi West 15.0 mph 21.9 mph N/A   Clear
3:55 PM 66.2 °F 26.6 °F 23% 29.88 in 10.0 mi West 16.1 mph 26.5 mph N/A   Clear
4:15 PM 66.2 °F 26.6 °F 23% 29.88 in 10.0 mi West 17.3 mph 27.6 mph N/A   Clear
4:35 PM 64.4 °F 26.6 °F 24% 29.88 in 10.0 mi West 12.7 mph 20.7 mph N/A   Clear
4:55 PM 66.2 °F 26.6 °F 23% 29.87 in 10.0 mi West 16.1 mph 21.9 mph N/A   Clear
5:15 PM 66.2 °F 26.6 °F 23% 29.87 in 10.0 mi WNW 11.5 mph 24.2 mph N/A   Clear
5:35 PM 66.2 °F 28.4 °F 24% 29.87 in 10.0 mi WNW 12.7 mph 19.6 mph N/A   Clear
5:55 PM 64.4 °F 26.6 °F 24% 29.88 in 10.0 mi West 12.7 mph 19.6 mph N/A   Clear
6:15 PM 64.4 °F 28.4 °F 26% 29.88 in 10.0 mi West 11.5 mph 20.7 mph N/A   Clear
6:35 PM 64.4 °F 28.4 °F 26% 29.88 in 10.0 mi West 10.4 mph 18.4 mph N/A   Clear
6:55 PM 62.6 °F 28.4 °F 27% 29.89 in 10.0 mi West 9.2 mph 17.3 mph N/A   Clear
7:15 PM 62.6 °F 28.4 °F 27% 29.90 in 10.0 mi West 6.9 mph - N/A   Clear
7:35 PM 59.0 °F 30.2 °F 34% 29.91 in 10.0 mi WNW 3.5 mph - N/A   Clear
7:55 PM 59.0 °F 32.0 °F 36% 29.92 in 10.0 mi WNW 3.5 mph - N/A   Clear
8:15 PM 55.4 °F 32.0 °F 41% 29.92 in 10.0 mi Calm Calm - N/A   Clear
8:35 PM 51.8 °F 35.6 °F 54% 29.93 in 10.0 mi Calm Calm - N/A   Clear
8:55 PM 50.0 °F 35.6 °F 58% 29.93 in 10.0 mi Calm Calm - N/A   Clear
9:15 PM 50.0 °F 33.8 °F 54% 29.93 in 10.0 mi Calm Calm - N/A   Clear
9:35 PM 48.2 °F 35.6 °F 62% 29.93 in 10.0 mi Calm Calm - N/A   Clear
9:55 PM 48.2 °F 33.8 °F 58% 29.94 in 10.0 mi Calm Calm - N/A   Clear
10:15 PM 46.4 °F 35.6 °F 66% 29.95 in 10.0 mi Calm Calm - N/A   Clear
10:35 PM 44.6 °F 35.6 °F 71% 29.95 in 10.0 mi Calm Calm - N/A   Clear
10:55 PM 44.6 °F 35.6 °F 71% 29.95 in 10.0 mi Calm Calm - N/A   Clear
11:15 PM 44.6 °F 35.6 °F 71% 29.96 in 10.0 mi Calm Calm - N/A   Clear
11:35 PM 42.8 °F 35.6 °F 76% 29.97 in 10.0 mi Calm Calm - N/A   Clear
11:55 PM 44.6 °F 35.6 °F 71% 29.97 in 10.0 mi Calm Calm - N/A   Clear